Weather History for New Bedford, MA

Change the Weather History Date:

Monday, December 31, 2012

  Actual Average Record
Temperature  
Mean Temperature 27 °F -  
Max Temperature 35 °F 40 °F 60 °F (1965)
Min Temperature 19 °F 24 °F -3 °F (1962)
Degree Days  
Heating Degree Days 38    
Moisture  
Dew Point 19 °F    
Average Humidity 67    
Maximum Humidity 73    
Minimum Humidity 60    
Precipitation  
Precipitation 0.00 in - - ()
Sea Level Pressure  
Sea Level Pressure 29.96 in    
Wind  
Wind Speed 9 mph (WSW)    
Max Wind Speed 16 mph    
Max Gust Speed 24 mph    
Visibility 10 miles    
Events      
Averages and records for this station are not official NWS values.
T = Trace of Precipitation, MM = Missing Value Source: NWS Daily Summary

Daily Weather History Graph

Daily Weather History Graph

Search for Another Location

Airport:

Trip Planner

Search our weather history database for the weather conditions in past years. The results will help you decide how hot, cold, wet, or windy it might be!

Date:

Astronomy

Dec. 31, 2012 Rise Set
Actual Time 7:10 AM EST 4:23 PM EST
Civil Twilight 6:39 AM EST 4:54 PM EST
Nautical Twilight 6:04 AM EST 5:29 PM EST
Astronomical Twilight 5:30 AM EST 6:03 PM EST
Moon 7:54 PM EST (12/31) 8:48 AM EST (12/31)
Length of Visible Light 10h 15m
Length of Day
9h 12m
Waning Gibbous, 90% of the Moon is Illuminated
Dec 31
Waning Gibbous
Jan 4
Last Quarter
Jan 11
New
Jan 18
First Quarter
Jan 26
Full

Hourly Weather History & Observations

Time (EST) Temp. Windchill Dew Point Humidity Pressure Visibility Wind Dir Wind Speed Gust Speed Precip Events Conditions
12:53 AM 21.0 °F 11.4 °F 10.0 °F 63% 30.00 in 10.0 mi WNW 8.1 mph - N/A   Clear
1:53 AM 19.9 °F 11.1 °F 10.0 °F 65% 30.02 in 10.0 mi West 6.9 mph - N/A   Clear
2:53 AM 19.9 °F 11.1 °F 10.0 °F 65% 30.04 in 10.0 mi WSW 6.9 mph - N/A   Clear
3:53 AM 21.0 °F 9.9 °F 10.9 °F 65% 30.05 in 10.0 mi West 10.4 mph - N/A   Clear
4:53 AM 21.0 °F 12.4 °F 12.9 °F 71% 30.04 in 10.0 mi WSW 6.9 mph - N/A   Clear
5:53 AM 21.0 °F 11.4 °F 12.9 °F 71% 30.07 in 10.0 mi WSW 8.1 mph - N/A   Clear
6:53 AM 23.0 °F 13.9 °F 14.0 °F 68% 30.07 in 10.0 mi WSW 8.1 mph - N/A   Clear
7:53 AM 25.0 °F 16.3 °F 16.0 °F 69% 30.06 in 10.0 mi WSW 8.1 mph - N/A   Partly Cloudy
8:53 AM 28.0 °F 18.1 °F 19.0 °F 69% 30.07 in 10.0 mi WSW 11.5 mph - N/A   Overcast
9:53 AM 28.9 °F 19.8 °F 19.9 °F 69% 30.07 in 10.0 mi West 10.4 mph - N/A   Overcast
10:53 AM 30.0 °F 20.0 °F 21.0 °F 69% 30.04 in 10.0 mi West 12.7 mph 17.3 mph N/A   Overcast
11:53 AM 30.9 °F 22.2 °F 21.0 °F 67% 30.01 in 10.0 mi West 10.4 mph 17.3 mph N/A   Overcast
12:53 PM 33.1 °F 22.6 °F 21.9 °F 64% 29.96 in 10.0 mi West 16.1 mph 23.0 mph N/A   Overcast
1:53 PM 33.1 °F 23.4 °F 21.9 °F 64% 29.94 in 10.0 mi West 13.8 mph 24.2 mph N/A   Clear
2:53 PM 33.1 °F 25.5 °F 21.9 °F 64% 29.94 in 10.0 mi West 9.2 mph - N/A   Clear
3:53 PM 32.0 °F 28.7 °F 21.9 °F 66% 29.93 in 10.0 mi WSW 3.5 mph - N/A   Clear
4:53 PM 30.9 °F 25.2 °F 21.9 °F 69% 29.91 in 10.0 mi WSW 5.8 mph - N/A   Clear
5:53 PM 30.9 °F 25.2 °F 21.9 °F 69% 29.90 in 10.0 mi SW 5.8 mph - N/A   Clear
6:53 PM 33.8 °F 25.8 °F 21.2 °F 60% 29.90 in 10.0 mi WSW 10.4 mph - N/A   Clear
7:53 PM 34.0 °F 27.2 °F 24.1 °F 67% 29.86 in 10.0 mi WSW 8.1 mph - N/A   Clear
8:53 PM 34.0 °F 28.0 °F 26.1 °F 73% 29.84 in 10.0 mi WSW 6.9 mph - N/A   Partly Cloudy
9:53 PM 35.1 °F 26.4 °F 25.0 °F 67% 29.82 in 10.0 mi WSW 12.7 mph 18.4 mph N/A   Mostly Cloudy
10:53 PM 35.6 °F 27.5 °F 24.8 °F 65% 29.81 in 10.0 mi West 11.5 mph - N/A   Overcast
11:53 PM 35.1 °F 27.4 °F 23.0 °F 61% 29.80 in 10.0 mi West 10.4 mph - N/A   Overcast